Regional Weather Roundup
Issued by NWS

Home | Current Version | Previous Version | Text Only | Print | Product List | Glossary Off
Versions: 1 2 3 4 5 6 7 8 9 10 11 12 13 14 15 16 17 18 19 20 21 22 23 24 25 26 27 28 29 30 31 32 33 34 35 36 37 38 39 40 41 42 43 44 45 46 47 48 49 50

000
ASUS43 KBIS 292320
RWRND

NORTH DAKOTA REGIONAL WEATHER ROUNDUP
NATIONAL WEATHER SERVICE BISMARCK ND
600 PM CDT SUN MAR 29 2015

NOTE: "FAIR" INDICATES FEW OR NO CLOUDS BELOW 12,000 FEET WITH NO
SIGNIFICANT WEATHER AND/OR OBSTRUCTIONS TO VISIBILITY.


NDZ001>003-009>011-017-300000-
NORTHWEST NORTH DAKOTA

CITY           SKY/WX    TMP DP  RH WIND       PRES   REMARKS
WILLISTON      PTSUNNY   60  31  33 W15       29.94F
MINOT          SUNNY     56  28  34 W17       29.92F
MINOT AFB      SUNNY     56  33  40 NW15G26   29.91S
$$

NDZ018>021-031>035-040>046-300000-
SOUTHWEST NORTH DAKOTA

CITY           SKY/WX    TMP DP  RH WIND       PRES   REMARKS
BISMARCK       SUNNY     60  30  32 NW14G23   29.97F
DICKINSON      MOSUNNY   59  25  27 W21       29.97F
GARRISON         N/A     58  32  37 NW22G29   29.95F
HETTINGER ARPT MOSUNNY   61  27  27 W18G25    30.02F
$$

NDZ004>008-012>016-024-026-027-054-300000-
NORTHEAST NORTH DAKOTA

CITY           SKY/WX    TMP DP  RH WIND       PRES   REMARKS
GRAND FORKS    PTSUNNY   53  28  38 NW14      29.88S
GRND FRKS AFB  CLOUDY    54  26  34 N16G22    29.88S
DEVILS LAKE    PTSUNNY   54  30  40 NW22G29   29.89S
$$

NDZ022-023-025-028>030-036>039-047>053-300000-
SOUTHEAST NORTH DAKOTA

CITY           SKY/WX    TMP DP  RH WIND       PRES   REMARKS
FARGO          MOSUNNY   56  24  29 NW23G35   29.91R
JAMESTOWN      MOSUNNY   55  24  30 NW20G29   29.93F
$$



USA.gov is the U.S. government's official web portal to all federal, state and local government web resources and services.